| time (UTC) | temp F | wind direction | speed knots | gust knots | rain 1hr in | rain 24hr in | rain mn in | humidity % | barometer mb |
| 20260504183855 | 51 | 26 | 0.0 | 0.0 | 0.00 | 0.35 | 0.00 | 79 | 1011.8 |
| 20260504183657 | 51 | 26 | 0.0 | 0.0 | 0.00 | 0.36 | 0.00 | 78 | 1011.8 |
| 20260504182855 | 51 | 26 | 0.0 | 0.0 | 0.00 | 0.36 | 0.00 | 77 | 1011.6 |
| 20260504181855 | 51 | 318 | 0.0 | 0.0 | 0.00 | 0.37 | 0.00 | 77 | 1011.3 |
| 20260504181657 | 52 | 343 | 0.0 | 0.9 | 0.00 | 0.37 | 0.00 | 77 | 1011.2 |
| 20260504180855 | 52 | 347 | 0.0 | 0.0 | 0.00 | 0.37 | 0.00 | 75 | 1011.0 |
| 20260504175856 | 53 | 323 | 0.0 | 0.0 | 0.00 | 0.39 | 0.00 | 75 | 1011.0 |
| 20260504175658 | 53 | 323 | 0.9 | 2.6 | 0.00 | 0.40 | 0.00 | 75 | 1011.0 |
| 20260504174854 | 53 | 41 | 0.0 | 2.6 | 0.00 | 0.41 | 0.00 | 76 | 1010.7 |
| 20260504173855 | 53 | 345 | 0.9 | 1.7 | 0.00 | 0.42 | 0.00 | 77 | 1010.5 |
| 20260504173657 | 53 | 341 | 0.9 | 2.6 | 0.00 | 0.42 | 0.00 | 77 | 1010.5 |
| 20260504172856 | 53 | 85 | 0.0 | 0.9 | 0.00 | 0.43 | 0.00 | 77 | 1010.1 |
| 20260504171855 | 54 | 354 | 0.0 | 0.0 | 0.00 | 0.44 | 0.00 | 77 | 1009.9 |
| 20260504171659 | 54 | 11 | 0.0 | 0.9 | 0.00 | 0.44 | 0.00 | 76 | 1009.8 |
| 20260504170855 | 53 | 329 | 0.0 | 0.9 | 0.00 | 0.45 | 0.00 | 77 | 1009.7 |
| 20260504150855 | 53 | 257 | 0.0 | 0.9 | 0.00 | 0.83 | 0.00 | 73 | 1007.4 |
| 20260504140855 | 54 | 187 | 0.0 | 2.6 | 0.00 | 0.88 | 0.85 | 68 | 1005.9 |
| 20260504081855 | 63 | 66 | 1.7 | 4.3 | 0.00 | 1.04 | 0.85 | 64 | 997.4 |
| 20260504080854 | 63 | 129 | 0.9 | 1.7 | 0.00 | 1.04 | 0.85 | 64 | 997.2 |
| 20260504045854 | 72 | 62 | 1.7 | 5.2 | 0.00 | 1.04 | 0.85 | 63 | 996.6 |
| 20260504045657 | 73 | 182 | 4.3 | 7.0 | 0.00 | 1.04 | 0.85 | 63 | 996.5 |
| 20260504044855 | 73 | 263 | 2.6 | 7.0 | 0.00 | 1.04 | 0.85 | 62 | 996.5 |
| 20260504043855 | 73 | 60 | 0.0 | 2.6 | 0.00 | 1.04 | 0.85 | 63 | 996.3 |
| 20260504042855 | 73 | 317 | 0.9 | 7.8 | 0.00 | 1.04 | 0.85 | 62 | 996.5 |
| 20260504041855 | 73 | 212 | 1.7 | 6.1 | 0.00 | 1.04 | 0.85 | 62 | 996.4 |
| 20260504040854 | 74 | 219 | 1.7 | 5.2 | 0.00 | 1.04 | 0.85 | 62 | 996.4 |
| 20260504035855 | 74 | 153 | 0.9 | 2.6 | 0.00 | 1.04 | 0.85 | 60 | 996.3 |
| 20260504034855 | 74 | 222 | 2.6 | 7.8 | 0.00 | 1.04 | 0.85 | 60 | 996.6 |
| 20260504033855 | 75 | 147 | 1.7 | 2.6 | 0.00 | 1.04 | 0.85 | 60 | 996.6 |
| 20260504033657 | 75 | 104 | 0.9 | 2.6 | 0.00 | 1.04 | 0.85 | 60 | 996.4 |
| 20260504032856 | 75 | 103 | 1.7 | 2.6 | 0.00 | 1.04 | 0.85 | 61 | 996.5 |
| 20260504031854 | 75 | 49 | 1.7 | 1.7 | 0.00 | 1.04 | 0.85 | 62 | 996.7 |
| 20260504031657 | 75 | 359 | 2.6 | 2.6 | 0.00 | 1.04 | 0.85 | 61 | 996.7 |
| 20260504030855 | 75 | 214 | 1.7 | 4.3 | 0.00 | 1.04 | 0.85 | 62 | 996.8 |
| 20260504025855 | 74 | 117 | 0.9 | 2.6 | 0.00 | 1.04 | 0.85 | 64 | 996.6 |
| 20260504025657 | 74 | 195 | 2.6 | 5.2 | 0.00 | 1.04 | 0.85 | 63 | 996.7 |
| 20260504024854 | 73 | 149 | 0.9 | 2.6 | 0.00 | 1.04 | 0.85 | 66 | 996.8 |
| 20260504023855 | 73 | 203 | 2.6 | 7.0 | 0.00 | 1.04 | 0.85 | 65 | 996.6 |
| 20260504022854 | 73 | 73 | 2.6 | 5.2 | 0.00 | 1.04 | 0.85 | 66 | 996.9 |
| 20260504021855 | 73 | 82 | 2.6 | 6.1 | 0.00 | 1.04 | 0.85 | 66 | 996.9 |
| 20260504020854 | 73 | 133 | 1.7 | 4.3 | 0.00 | 1.04 | 0.85 | 66 | 996.9 |
| 20260504015855 | 74 | 174 | 4.3 | 7.0 | 0.00 | 1.04 | 0.85 | 66 | 996.9 |
| 20260504015658 | 74 | 167 | 2.6 | 2.6 | 0.00 | 1.04 | 0.85 | 67 | 996.8 |
| 20260504014854 | 74 | 213 | 2.6 | 8.7 | 0.00 | 1.04 | 0.85 | 67 | 996.9 |
| 20260504013855 | 73 | 163 | 2.6 | 2.6 | 0.00 | 1.04 | 0.85 | 68 | 996.7 |
| 20260504012854 | 74 | 200 | 2.6 | 5.2 | 0.00 | 1.04 | 0.85 | 68 | 997.0 |
| 20260504011855 | 73 | 113 | 0.9 | 2.6 | 0.00 | 1.04 | 0.85 | 69 | 997.1 |
| 20260504010854 | 73 | 158 | 2.6 | 6.1 | 0.00 | 1.04 | 0.85 | 70 | 997.3 |
| 20260504005855 | 73 | 111 | 0.9 | 4.3 | 0.00 | 1.04 | 0.85 | 72 | 997.2 |
| 20260504004854 | 72 | 154 | 0.9 | 7.0 | 0.00 | 1.04 | 0.85 | 74 | 996.9 |
| 20260504003855 | 71 | 3 | 1.7 | 7.0 | 0.00 | 1.04 | 0.85 | 76 | 997.3 |
| 20260504002854 | 71 | 43 | 0.9 | 5.2 | 0.00 | 1.04 | 0.85 | 77 | 997.3 |
| 20260504001855 | 70 | 163 | 1.7 | 5.2 | 0.00 | 1.04 | 0.85 | 80 | 997.3 |
| 20260504001658 | 70 | 166 | 1.7 | 4.3 | 0.00 | 1.04 | 0.85 | 80 | 997.2 |
| 20260504000854 | 68 | 79 | 0.9 | 4.3 | 0.00 | 1.04 | 0.85 | 83 | 997.3 |
| 20260503235855 | 68 | 66 | 1.7 | 2.6 | 0.00 | 1.04 | 0.85 | 84 | 997.2 |
| 20260503235658 | 68 | 172 | 1.7 | 2.6 | 0.00 | 1.04 | 0.85 | 85 | 997.1 |
| 20260503234855 | 67 | 353 | 1.7 | 2.6 | 0.00 | 1.04 | 0.85 | 85 | 997.4 |
| 20260503233855 | 66 | 206 | 2.6 | 10.4 | 0.00 | 1.04 | 0.85 | 87 | 997.5 |
| 20260503233658 | 66 | 172 | 1.7 | 10.4 | 0.00 | 1.04 | 0.85 | 88 | 997.5 |
| 20260503232854 | 66 | 141 | 0.9 | 2.6 | 0.00 | 1.04 | 0.85 | 89 | 997.3 |
| 20260503231854 | 66 | 173 | 0.9 | 2.6 | 0.00 | 1.04 | 0.85 | 90 | 997.2 |
| 20260503230855 | 66 | 209 | 0.9 | 5.2 | 0.00 | 1.04 | 0.85 | 92 | 997.0 |
| 20260503225855 | 66 | 96 | 0.9 | 2.6 | 0.00 | 1.04 | 0.85 | 93 | 997.1 |
| 20260503225657 | 65 | 77 | 0.0 | 0.9 | 0.00 | 1.04 | 0.85 | 93 | 997.1 |
| 20260503224854 | 65 | 111 | 0.0 | 0.9 | 0.00 | 1.04 | 0.85 | 93 | 997.2 |
| 20260503223855 | 66 | 124 | 0.9 | 2.6 | 0.00 | 1.04 | 0.85 | 94 | 997.3 |
| 20260503222854 | 66 | 67 | 0.9 | 4.3 | 0.00 | 1.04 | 0.85 | 94 | 997.1 |
| 20260503221855 | 66 | 42 | 0.9 | 2.6 | 0.01 | 1.04 | 0.85 | 95 | 997.0 |
| 20260503220854 | 66 | 98 | 0.9 | 1.7 | 0.02 | 1.04 | 0.85 | 95 | 996.9 |
| 20260503215855 | 66 | 83 | 0.9 | 5.2 | 0.03 | 1.04 | 0.85 | 95 | 996.7 |
| 20260503215658 | 66 | 13 | 0.9 | 0.9 | 0.03 | 1.04 | 0.85 | 95 | 996.6 |
| 20260503214855 | 67 | 166 | 0.9 | 4.3 | 0.03 | 1.04 | 0.85 | 95 | 996.4 |
| 20260503213854 | 67 | 194 | 1.7 | 6.1 | 0.04 | 1.04 | 0.85 | 95 | 996.4 |
| 20260503212855 | 67 | 114 | 1.7 | 4.3 | 0.05 | 1.04 | 0.85 | 95 | 996.0 |
| 20260503211854 | 68 | 215 | 1.7 | 10.4 | 0.05 | 1.03 | 0.84 | 95 | 996.2 |
| 20260503210855 | 68 | 229 | 2.6 | 7.0 | 0.06 | 1.02 | 0.83 | 95 | 995.7 |
| 20260503205854 | 68 | 47 | 0.9 | 2.6 | 0.10 | 1.01 | 0.82 | 95 | 995.8 |
| 20260503204855 | 68 | 263 | 1.7 | 10.4 | 0.16 | 1.01 | 0.82 | 95 | 995.7 |
| 20260503203855 | 68 | 7 | 2.6 | 8.7 | 0.22 | 1.00 | 0.81 | 95 | 995.7 |
| 20260503202855 | 68 | 72 | 2.6 | 5.2 | 0.26 | 0.99 | 0.80 | 95 | 995.5 |
| 20260503201854 | 68 | 82 | 0.9 | 2.6 | 0.26 | 0.98 | 0.79 | 94 | 995.8 |
| 20260503201656 | 68 | 247 | 2.6 | 6.1 | 0.26 | 0.98 | 0.79 | 94 | 995.8 |
| 20260503200855 | 68 | 288 | 0.9 | 1.7 | 0.24 | 0.96 | 0.77 | 94 | 996.0 |
| 20260503195855 | 68 | 285 | 1.7 | 2.6 | 0.21 | 0.91 | 0.72 | 94 | 996.2 |
| 20260503194855 | 68 | 175 | 1.7 | 4.3 | 0.16 | 0.85 | 0.66 | 94 | 996.2 |
| 20260503193855 | 67 | 352 | 2.6 | 2.6 | 0.09 | 0.78 | 0.59 | 94 | 996.1 |
| 20260503193657 | 67 | 310 | 4.3 | 10.4 | 0.09 | 0.77 | 0.58 | 94 | 996.0 |
| 20260503192854 | 67 | 354 | 2.6 | 2.6 | 0.05 | 0.73 | 0.54 | 94 | 996.1 |
| 20260503191854 | 67 | 143 | 1.7 | 2.6 | 0.05 | 0.72 | 0.53 | 94 | 996.6 |
| 20260503191657 | 67 | 249 | 2.6 | 2.6 | 0.05 | 0.72 | 0.53 | 94 | 996.6 |
| 20260503190855 | 67 | 63 | 1.7 | 1.7 | 0.05 | 0.72 | 0.53 | 94 | 997.0 |
| 20260503185854 | 67 | 176 | 1.7 | 7.0 | 0.05 | 0.70 | 0.51 | 94 | 997.4 |
| 20260503185656 | 67 | 189 | 2.6 | 2.6 | 0.06 | 0.70 | 0.51 | 94 | 997.4 |
| 20260503184855 | 66 | 126 | 0.9 | 1.7 | 0.06 | 0.69 | 0.50 | 94 | 997.8 |